Vorticity
7 7 8 8 9 14 12 5 4 3 4 6 6 6 7 7 6 4 8 5 6 6 3 1 0 3 5 -3 15 8 7 3 4 4 6 5 3 2 3 3 4 1 2 2 4 4 5 5 5
5 6 6 5 6 11 9 7 3 3 4 4 4 4 7 5 5 6 6 6 4 6 2 5 1 4 8 7 4 8 11 9 4 1 3 5 5 3 2 4 3 2 2 1 4 5 3 3 4
6 4 2 -1 5 9 5 5 8 6 5 5 4 4 4 4 5 5 5 5 5 4 3 2 5 4 6 5 5 4 11 8 5 3 2 4 5 7 6 4 6 4 2 1 2 3 2 1 5
5 6 0 2 9 12 9 4 2 5 6 7 8 7 6 4 3 4 5 4 6 4 5 5 5 4 5 3 1 3 3 11 10 6 3 1 7 6 6 7 3 6 5 3 3 1 2 0 8
6 3 2 4 6 7 5 10 9 6 3 6 8 7 8 10 7 5 5 6 7 6 7 5 2 0 2 2 3 5 8 4 7 7 7 4 6 10 8 9 7 6 4 5 3 4 5 -0 5
4 4 3 3 8 10 5 3 5 12 10 6 5 7 5 4 6 7 5 4 4 3 5 4 6 4 3 3 3 5 4 6 9 9 6 6 6 6 6 8 7 4 7 8 4 4 4 1 5
8 4 4 5 7 7 10 2 -2 2 8 10 8 9 6 3 5 5 5 5 3 5 4 4 3 4 6 6 4 3 3 4 7 9 6 5 4 4 4 3 3 3 6 7 8 4 5 2 3
3 4 1 3 3 1 6 8 4 2 4 4 4 7 9 10 9 8 6 6 5 5 5 3 3 3 2 5 5 3 3 7 7 3 4 3 5 5 4 5 5 6 7 8 8 5 5 4 3
6 4 3 2 5 3 1 5 5 5 2 1 5 8 7 6 5 8 9 7 6 5 5 4 4 5 6 5 6 13 13 7 7 6 7 7 5 5 5 6 8 7 8 7 8 8 7 3 1
8 11 6 5 5 6 7 1 1 4 5 3 4 8 11 7 5 5 7 7 6 6 7 6 4 6 6 5 3 2 3 10 9 7 4 5 5 6 6 6 9 5 5 6 9 9 6 6 5
5 6 8 7 7 4 7 9 4 4 5 3 0 3 4 12 10 7 5 5 6 5 6 6 5 4 4 4 4 4 3 7 8 10 7 6 6 4 4 6 2 4 5 8 9 10 7 6 6
8 6 7 4 3 1 1 4 7 4 2 5 2 4 9 7 5 13 10 7 6 4 4 5 5 5 5 4 7 8 3 4 7 7 11 12 7 5 6 2 1 5 10 4 10 8 8 5 4
11 13 12 9 8 6 4 3 1 7 10 4 5 5 8 6 4 6 14 11 7 4 4 4 4 4 5 5 3 2 7 0 3 4 4 5 7 8 5 2 2 5 7 5 10 8 7 4 4
1 2 7 7 7 11 11 8 7 10 4 6 7 6 5 7 6 7 7 10 13 7 8 2 3 2 -1 -3 2 9 -1 49 5 2 5 0 3 2 5 5 2 4 6 5 5 8 7 6 3
3 9 9 3 5 8 5 6 9 7 10 10 11 10 9 7 9 8 3 7 8 10 8 9 6 3 3 2 4 3 11 -36 26 3 4 4 3 3 1 7 5 5 -3 15 8 11 5 6 5
5 7 7 6 14 8 8 10 9 10 9 12 13 11 10 9 8 5 9 10 6 7 9 8 8 7 7 5 4 4 6 8 4 8 4 5 0 6 3 4 4 4 4 8 11 9 5 6 6
9 2 4 6 10 9 13 14 11 11 10 11 10 10 9 9 9 10 10 11 12 9 5 6 7 6 6 6 5 5 5 5 6 9 11 3 4 3 9 4 4 5 7 3 8 10 7 4 4
-1 3 4 9 7 1 5 2 5 11 9 9 9 8 8 9 9 9 9 9 10 11 12 8 4 5 8 7 7 7 7 9 9 11 12 9 3 4 11 9 4 5 6 4 6 9 9 3 3
2 7 6 7 8 8 10 8 8 8 9 8 9 11 12 11 10 10 11 11 13 13 14 15 13 10 9 8 6 6 6 8 9 7 7 9 9 2 2 12 8 5 3 5 6 7 11 3 2
11 7 9 6 5 7 5 1 4 8 8 9 9 10 11 12 12 13 12 13 13 14 14 14 14 15 14 12 11 11 9 7 8 8 8 13 11 8 8 3 12 4 2 7 8 6 9 3 3
14 14 13 11 10 6 6 3 3 8 10 13 11 9 9 9 10 8 9 9 8 7 7 7 7 7 9 10 11 11 12 13 12 10 11 13 19 17 8 3 10 6 2 5 6 6 6 4 4
13 16 13 12 11 8 9 11 15 8 13 13 11 9 8 7 7 8 9 9 7 6 6 6 5 4 5 7 9 10 9 7 6 9 9 13 12 18 9 7 9 11 5 5 7 5 6 2 8
11 9 11 13 13 13 11 16 16 12 10 8 8 10 7 9 7 8 5 6 7 7 7 7 8 11 11 11 7 6 7 10 9 7 10 11 11 14 13 8 6 9 7 9 8 7 2 0 6
14 14 12 13 14 10 18 10 -1 13 4 11 10 12 13 12 10 8 6 6 7 8 9 11 13 13 12 11 12 12 9 8 8 8 7 13 8 8 16 13 7 9 8 7 11 5 0 1 6
16 18 17 25 15 14 6 11 4 7 10 6 9 7 8 8 9 10 10 11 10 8 7 8 8 8 9 11 12 11 12 15 13 10 9 10 8 8 15 12 7 7 11 8 10 7 3 2 3
9 12 11 13 15 16 11 8 13 11 13 10 8 6 5 8 8 8 7 6 9 9 8 10 13 21 39 30 30 26 21 25 30 17 9 11 9 9 18 10 7 7 16 9 9 7 5 2 3
7 6 7 7 4 4 11 13 14 10 8 7 6 7 7 5 5 6 8 7 8 7 12 21 23 11 15 23 13 15 13 19 20 17 16 15 11 11 18 15 9 3 6 8 11 8 18 9 4
14 14 9 10 11 13 11 8 11 7 6 7 7 6 4 4 4 5 5 5 4 12 31 13 19 32 19 12 13 18 15 16 23 14 24 13 8 7 10 13 14 10 7 7 3 4 41 4 1
5 5 13 11 5 2 3 5 3 5 6 5 5 3 3 4 4 5 8 8 15 20 19 16 24 7 22 29 20 18 24 16 16 18 21 15 4 9 10 18 15 3 16 7 7 -3 -8 11 5
8 4 4 8 7 8 6 7 5 4 5 7 4 5 6 7 10 11 12 24 13 13 32 23 11 34 14 4 8 27 14 4 12 7 10 19 5 -4 15 5 5 4 22 6 3 9 14 5 -0
Height
5849 5849 5850 5850 5854 5853 5852 5850 5846 5844 5845 5847 5848 5849 5850 5850 5852 5855 5852 5852 5853 5854 5854 5854 5854 5854 5855 5855 5854 5853 5853 5854 5854 5854 5853 5853 5852 5852 5852 5852 5852 5851 5850 5849 5849 5848 5847 5846 5845
5844 5845 5846 5847 5850 5849 5848 5844 5841 5840 5841 5843 5844 5845 5846 5843 5845 5848 5848 5848 5849 5850 5850 5850 5850 5850 5851 5851 5851 5849 5849 5849 5850 5850 5851 5850 5850 5849 5849 5849 5848 5847 5846 5846 5846 5845 5845 5844 5843
5839 5840 5841 5843 5846 5845 5843 5840 5838 5837 5836 5838 5839 5840 5840 5840 5841 5842 5842 5843 5844 5845 5845 5845 5846 5846 5847 5847 5847 5846 5845 5845 5846 5846 5847 5847 5847 5846 5846 5845 5844 5843 5843 5842 5842 5842 5841 5840 5840
5833 5834 5835 5837 5840 5839 5837 5835 5833 5831 5831 5833 5835 5835 5835 5837 5836 5837 5837 5838 5840 5839 5840 5841 5841 5841 5841 5842 5843 5842 5841 5842 5842 5841 5841 5841 5842 5842 5842 5841 5840 5839 5839 5838 5839 5839 5838 5837 5837
5828 5828 5827 5832 5834 5834 5831 5830 5828 5827 5827 5828 5830 5830 5829 5831 5833 5832 5832 5833 5834 5834 5835 5835 5836 5836 5836 5837 5837 5837 5837 5837 5837 5836 5836 5837 5838 5837 5837 5836 5836 5835 5834 5835 5835 5835 5834 5833 5833
5821 5822 5821 5825 5828 5827 5826 5823 5822 5822 5821 5821 5824 5825 5824 5823 5825 5827 5826 5826 5827 5827 5828 5830 5831 5830 5830 5831 5831 5832 5832 5832 5832 5831 5831 5831 5832 5833 5832 5832 5831 5831 5831 5831 5831 5831 5829 5829 5829
5815 5815 5814 5818 5822 5821 5819 5817 5817 5817 5815 5815 5817 5819 5819 5818 5819 5820 5820 5820 5820 5821 5822 5823 5824 5824 5825 5825 5826 5826 5827 5827 5827 5827 5825 5826 5826 5827 5828 5828 5827 5827 5826 5826 5826 5826 5826 5825 5825
5809 5806 5807 5813 5815 5815 5812 5811 5811 5811 5810 5809 5811 5811 5812 5811 5813 5814 5814 5814 5814 5815 5816 5817 5818 5818 5819 5819 5819 5821 5821 5821 5822 5822 5822 5821 5821 5820 5821 5822 5822 5822 5821 5821 5821 5822 5821 5821 5821
5801 5799 5800 5806 5806 5806 5806 5804 5803 5804 5803 5803 5804 5803 5804 5803 5804 5806 5806 5806 5807 5808 5809 5811 5811 5812 5812 5812 5814 5815 5815 5815 5815 5815 5816 5816 5816 5816 5815 5816 5816 5816 5816 5816 5816 5816 5816 5816 5816
5793 5792 5794 5795 5797 5797 5797 5797 5796 5796 5796 5796 5796 5795 5795 5795 5796 5796 5798 5798 5799 5800 5802 5802 5804 5806 5807 5807 5807 5809 5809 5809 5808 5808 5808 5809 5810 5810 5810 5811 5811 5812 5811 5811 5811 5811 5811 5811 5811
5784 5785 5784 5786 5787 5787 5787 5789 5787 5788 5787 5787 5787 5787 5786 5788 5787 5789 5787 5787 5790 5792 5794 5795 5795 5796 5797 5799 5801 5803 5803 5804 5803 5803 5802 5802 5803 5805 5805 5805 5805 5806 5805 5805 5805 5805 5805 5805 5805
5775 5775 5776 5775 5776 5777 5777 5777 5778 5777 5778 5777 5778 5778 5779 5779 5780 5780 5780 5779 5780 5781 5783 5784 5786 5787 5788 5789 5793 5795 5797 5798 5797 5796 5796 5797 5797 5798 5798 5799 5800 5799 5799 5800 5800 5800 5800 5800 5800
5765 5764 5765 5765 5764 5765 5764 5766 5767 5767 5767 5765 5767 5769 5769 5769 5769 5770 5773 5772 5772 5771 5772 5773 5774 5777 5779 5780 5783 5786 5787 5789 5790 5790 5790 5789 5790 5790 5791 5791 5793 5793 5793 5794 5794 5794 5795 5794 5794
5755 5756 5754 5752 5753 5753 5752 5752 5753 5758 5754 5755 5756 5757 5758 5758 5759 5760 5760 5763 5763 5761 5762 5762 5764 5766 5766 5768 5771 5775 5777 5777 5781 5783 5783 5783 5783 5784 5784 5784 5786 5787 5787 5788 5788 5788 5789 5789 5788
5747 5745 5744 5744 5743 5741 5740 5742 5742 5742 5743 5742 5742 5743 5744 5746 5748 5749 5748 5748 5751 5754 5754 5754 5754 5754 5756 5757 5761 5763 5767 5768 5771 5773 5775 5775 5775 5777 5778 5779 5779 5780 5780 5782 5782 5782 5783 5783 5782
5735 5734 5734 5731 5732 5731 5730 5732 5729 5732 5731 5732 5731 5731 5731 5732 5734 5735 5737 5739 5739 5739 5742 5744 5744 5744 5746 5747 5749 5753 5755 5758 5760 5764 5766 5766 5766 5768 5770 5771 5772 5772 5772 5774 5775 5776 5777 5777 5776
5722 5725 5722 5721 5720 5720 5720 5720 5720 5719 5719 5720 5719 5719 5719 5719 5720 5723 5725 5726 5728 5729 5728 5728 5732 5732 5733 5736 5737 5740 5742 5746 5750 5753 5757 5758 5759 5761 5762 5762 5764 5764 5765 5767 5768 5770 5771 5771 5769
5710 5710 5710 5709 5709 5708 5708 5709 5708 5708 5707 5708 5708 5708 5706 5708 5708 5709 5711 5713 5715 5717 5718 5718 5718 5718 5722 5726 5726 5728 5732 5734 5739 5744 5746 5748 5751 5751 5752 5753 5755 5757 5757 5759 5761 5763 5764 5765 5763
5695 5697 5697 5696 5696 5696 5697 5697 5696 5696 5696 5697 5696 5696 5697 5695 5695 5697 5698 5699 5701 5703 5705 5706 5707 5708 5709 5710 5712 5714 5717 5721 5725 5727 5734 5735 5738 5741 5742 5743 5745 5748 5750 5751 5753 5756 5757 5758 5757
5680 5682 5684 5683 5682 5683 5685 5687 5685 5685 5685 5684 5684 5684 5684 5685 5685 5686 5687 5688 5688 5690 5692 5693 5694 5694 5696 5697 5699 5702 5705 5708 5710 5712 5716 5724 5726 5729 5732 5732 5735 5738 5741 5744 5745 5748 5749 5751 5750
5666 5669 5669 5670 5669 5672 5672 5675 5674 5674 5673 5673 5672 5672 5673 5674 5673 5674 5675 5677 5678 5679 5680 5680 5681 5682 5683 5685 5687 5688 5690 5693 5696 5701 5705 5710 5716 5720 5723 5725 5725 5728 5731 5735 5737 5740 5742 5744 5744
5651 5653 5656 5658 5658 5661 5662 5663 5661 5662 5662 5662 5663 5662 5662 5662 5662 5663 5663 5664 5665 5667 5668 5669 5669 5670 5670 5671 5673 5675 5677 5680 5684 5686 5692 5696 5700 5706 5709 5713 5715 5719 5722 5725 5729 5732 5734 5736 5738
5641 5639 5643 5645 5646 5647 5651 5651 5651 5648 5651 5653 5654 5653 5653 5652 5652 5652 5654 5655 5654 5655 5656 5657 5657 5657 5657 5657 5658 5660 5664 5668 5670 5672 5677 5683 5687 5692 5695 5700 5704 5707 5712 5717 5720 5723 5726 5727 5730
5627 5629 5631 5632 5633 5635 5640 5642 5646 5635 5637 5641 5643 5644 5644 5643 5642 5642 5642 5642 5642 5642 5642 5642 5642 5642 5641 5641 5641 5643 5648 5652 5655 5659 5664 5669 5674 5680 5684 5690 5693 5698 5701 5705 5710 5713 5716 5719 5722
5615 5618 5620 5623 5622 5628 5627 5631 5635 5628 5629 5629 5632 5633 5633 5632 5631 5631 5630 5629 5629 5628 5627 5626 5625 5625 5623 5622 5622 5625 5631 5635 5640 5644 5649 5655 5660 5666 5674 5678 5682 5687 5690 5696 5700 5704 5707 5711 5713
5607 5609 5612 5614 5618 5620 5617 5620 5618 5619 5620 5621 5622 5620 5620 5619 5619 5620 5619 5617 5616 5614 5612 5610 5607 5606 5603 5601 5603 5606 5611 5616 5623 5629 5635 5641 5647 5655 5663 5666 5670 5675 5680 5684 5688 5690 5695 5700 5704
5598 5601 5602 5605 5606 5606 5610 5611 5610 5610 5610 5612 5611 5610 5610 5608 5607 5606 5605 5605 5602 5598 5595 5592 5589 5587 5588 5587 5589 5591 5595 5601 5607 5613 5620 5627 5634 5642 5650 5654 5659 5662 5668 5673 5678 5679 5685 5691 5694
5588 5591 5594 5595 5597 5599 5601 5602 5602 5600 5602 5601 5600 5599 5599 5598 5598 5596 5593 5591 5588 5584 5581 5578 5576 5574 5574 5575 5577 5580 5583 5587 5593 5599 5607 5615 5622 5629 5637 5644 5647 5651 5656 5661 5666 5669 5674 5679 5685
5581 5583 5587 5588 5590 5591 5592 5595 5592 5593 5592 5592 5592 5591 5589 5588 5586 5584 5581 5578 5576 5573 5570 5568 5566 5565 5565 5565 5568 5570 5573 5577 5579 5587 5596 5604 5611 5618 5627 5632 5635 5641 5649 5653 5656 5661 5665 5670 5676
5574 5577 5580 5580 5583 5583 5582 5585 5582 5583 5583 5581 5579 5578 5577 5576 5575 5573 5570 5569 5566 5563 5561 5559 5559 5558 5560 5562 5563 5564 5566 5570 5571 5577 5585 5593 5602 5608 5616 5621 5626 5632 5639 5643 5648 5653 5656 5662 5667